STARLINK-1800, 46700

Orbit data source: Space-Track

STARLINK-1800, 46700 is a payload satellite owned by SpaceX/Seattle (US) in LEO that was launched on Sun, 18 Oct 2020 UTC via an FALCON 9 launch vehicle from the Air Force Eastern Test Range (AFETR). Payload-class satellites include a variety of spacecraft equipped with specific instruments for various scientific and technological missions. These include communications satellites like Starlink; space stations such as the ISS; scientific satellites like the Hubble; Earth observation satellites from companies like Planet Labs, Umbra, and HawkEye 360; GPS; miniature CubeSats for education and research; and military/defense satellites.

Loading next visibility...
Identifier
46700, 2020-073AG
Orbit
LEO
Last TLE update
10 hours ago
Origin
Manufacturer
SpaceX/Seattle
Mission
Operational Commercial Communications
Bus & Motor
STARLINK, Unknown motor
Mass
260 kg wet, ~248 kg dry
Launch date (UTC)
2020-10-18 (5 years ago)
Launch vehicle
FALCON 9
Launch site
Air Force Eastern Test Range (AFETR)
Object type
Payload
Rocket body
Debris
Shape & HBR
Box + 1 Pan, 8.86 m
Radar Cross Section
13.562 m², Large (>1 m²)

Expand to show TLE details & history

TLE from 10 hours ago
0 STARLINK-1800
1 46700U 20073AG  25182.73761948  .00002329  00000-0  17511-3 0  9996
2 46700  53.0552 303.1839 0000886  93.7866 266.3225 15.06414037259099
Epoch: 2025-07-01T17:42Z
TLE epoch observation values (Epoch: 2025-07-01T17:42:10.323Z)
Latitude
0.00005°
Longitude
117.61215°
Altitude
548.087 km
Speed
7.589 km/s
True Right ascension
20h 12m 44s
True Declination
0° 00' 00"
Sunlit
Object was in full shadow at epoch
Visualization orbit readout
Latitude
40.0495°
Longitude
154.73362°
Altitude
550.296 km
Speed
7.592 km/s
Apparent Right ascension
00h 49m 50s
Apparent Declination
2° 27' 46"
Sunlit
Object is in daylight
Visualization observer readout
Local Sidereal Time
15:10:48
Azimuth
46.005° ENE
Elevation
-36.748°
Doppler factor
1
Orbital elements
Apogee altitude
548.053 km
Perigee altitude
546.826 km
Semi-major axis
6,925.576 km
Eccentricity
0.00009
Inclination
53.0552°
RAAN
303.1839°
Arg. of periapsis
93.7866°
True anomaly
Unknown
Mean anomaly
266.3225°
Eccentric anomaly
Unknown
Mean motion
3.76582 °/min
Orbital period
95.6 mins
BSTAR
0.00017511
Loading maneuver chart data...
Loading SW <> Apogee altitude chart data...
Loading historical data...
Loading historical data...
Loading historical data...
Loading historical data...
Loading historical data...
Loading historical data...
Loading historical data...

STARLINK-1800 Visibility forecast

Observer location: undefined°, undefined°

Span
Click to sort rows by Start time (UTC) header in descending order
Start Az.
Max El. time (UTC)
Max El. Az.
Max El.
End time (UTC)
End Az.
6 mins2025-07-02 09:46:32.965Z180.065° SSW2025-07-02 09:49:32.965Z125.47° SE22.579°2025-07-02 09:52:32.965Z75.934° E
6 mins2025-07-02 11:26:32.965Z262.96° W2025-07-02 11:28:32.965Z318.504° NNW36.188°2025-07-02 11:32:32.965Z40.707° NE
4 mins2025-07-02 13:07:32.965Z321.075° NNW2025-07-02 13:08:32.965Z337.452° NNW15.16°2025-07-02 13:11:32.965Z24.453° NE
5 mins2025-07-02 16:28:32.965Z342.493° N2025-07-02 16:30:32.965Z29.993° NE27.1°2025-07-02 16:33:32.965Z87.321° E
6 mins2025-07-02 18:07:32.965Z290.541° WNW2025-07-02 18:10:32.965Z206.544° SW34.197°2025-07-02 18:13:32.965Z155.667° SSE
|